Weather Roundup
Issued by NWS

Home | Current Version | Previous Version | Text Only | Print | Product List | Glossary On
Versions: 1 2 3 4 5 6 7 8 9 10 11 12 13 14 15 16 17 18 19 20 21 22 23 24 25 26 27 28 29 30 31 32 33 34 35 36 37 38 39 40 41 42 43 44 45 46 47 48 49 50
909
NZUS93 KARX 060210
HRRWXR

CURRENT HOURLY OBSERVATIONS ACROSS
MUCH OF THE UPPER MISSISSIPPI VALLEY
NATIONAL WEATHER SERVICE LA CROSSE WI
800 PM CST FRI FEB 05 2016


...SOUTHEAST MINNESOTA...


CITY           SKY/WX    TMP DP  RH WIND       PRES   REMARKS
ROCHESTER      CLOUDY    21  15  78 S15       30.21F WCI   8
ROCHESTER/MAYO CLOUDY    23  16  76 S9        30.21F WCI  13
WINONA         CLOUDY    25  14  63 S3        30.26F
AUSTIN         CLOUDY    21  18  86 S12       30.21F WCI   9
ALBERT LEA     CLOUDY    25  19  80 S8        30.21S WCI  16
DODGE CENTER   CLOUDY    21  18  86 SW15      30.20F WCI   8
PRESTON        CLOUDY    20  14  79 S12       30.23F WCI   8
OWATONNA       CLOUDY    25  19  80 S14       30.20S WCI  13
FARIBAULT      CLOUDY    25  19  80 S9        30.21F WCI  15
$$

...ELSEWHERE IN MINNESOTA...


CITY           SKY/WX    TMP DP  RH WIND       PRES   REMARKS
MINNEAPOLIS    FLURRIES  25  19  78 S8        30.20F WCI  16
INTNL FALLS    CLOUDY    23  15  71 W6        30.06S WCI  16
DULUTH         CLOUDY    24  13  62 W12       30.08F WCI  13
RED WING       CLOUDY    25  18  74 S6        30.22F WCI  18
REDWOOD FALLS  CLOUDY    27  23  85 W8        30.18S WCI  19
MANKATO        CLOUDY    25  19  80 SW12      30.19F WCI  14
WORTHINGTON    CLOUDY    25  21  86 SW10      30.18S WCI  15
FAIRMONT       CLOUDY    25  19  80 S13       30.18F WCI  13
$$

...SOUTHWEST WISCONSIN...


CITY           SKY/WX    TMP DP  RH WIND       PRES   REMARKS
LA CROSSE      CLOUDY    24  14  65 S12       30.27F WCI  13
PRAIRIE DU CHI CLOUDY    26  16  65 CALM      30.31F
BOSCOBEL       CLOUDY    26  18  71 CALM      30.31F
LONE ROCK      CLOUDY    23  16  74 CALM      30.31F
PLATTEVILLE    CLOUDY    26  21  83 S6        30.30S WCI  19
FORT MC COY    CLOUDY    19  16  87 CALM      30.27F
CAMP DOUGLAS   CLOUDY    24  20  83 S5        30.26F WCI  18
VIROQUA        CLOUDY    22  15  74 S6        30.25F WCI  15
WIS DELLS      CLOUDY    24  16  69 SW8       30.28F WCI  16
$$

...ELSEWHERE IN WISCONSIN...


CITY           SKY/WX    TMP DP  RH WIND       PRES   REMARKS
MILWAUKEE      CLOUDY    29  15  56 SW5       30.31F WCI  24
MADISON        CLOUDY    27  17  66 CALM      30.30S
GREEN BAY      CLOUDY    21  15  78 S6        30.27F WCI  13
EAU CLAIRE     CLOUDY    23  13  65 S8        30.21F WCI  14
BLACK RVR FLS  CLOUDY    21  14  76 S3        30.24F
MEDFORD        CLOUDY    19  12  77 SW7       30.18S WCI   9
WAUSAU         CLOUDY    21  12  68 SW7       30.19F WCI  12
WIS RAPIDS     CLOUDY    21  14  74 S5        30.25F WCI  15
MARSHFIELD     CLOUDY    20  11  68 SW6       30.20F WCI  12
RICE LAKE      CLOUDY    21  14  73 S7        30.19F WCI  12
$$

...NORTHEAST IOWA...


CITY           SKY/WX    TMP DP  RH WIND       PRES   REMARKS
WATERLOO       CLOUDY    24  19  81 S6        30.28F WCI  17
DUBUQUE        CLOUDY    25  20  81 S7        30.29F WCI  17
DECORAH        CLOUDY    21  18  86 S9        30.25F WCI  11
MASON CITY     CLOUDY    22  20  92 S12       30.25S WCI  10
CHARLES CITY   CLOUDY    23  23 100 S12       30.26S WCI  12
OELWEIN        CLOUDY    25  21  86 S10       30.27F WCI  15
$$

...ELSEWHERE IN IOWA...


CITY           SKY/WX    TMP DP  RH WIND       PRES   REMARKS
DES MOINES     FLURRIES  30  23  75 S8        30.28F WCI  22
IOWA CITY      CLOUDY    28  22  78 S6        30.34F WCI  22
FORT DODGE     CLOUDY    27  21  80 S15       30.23F WCI  15
MARSHALLTOWN   LGT SNOW  25  23  92 S10       30.27F FOG     WCI  15
CEDAR RAPIDS   CLOUDY    27  22  81 S8        30.29F WCI  19
$$

...NORTHERN ILLINOIS...


CITY           SKY/WX    TMP DP  RH WIND       PRES   REMARKS
CHICAGO-OHARE  CLOUDY    29  21  72 W7        30.34R WCI  22
CHICAGO-MIDWAY CLOUDY    31  20  63 SW8       30.35R WCI  23
MOLINE         CLOUDY    28  21  75 CALM      30.33F
ROCKFORD       CLOUDY    29  21  72 SW5       30.35F WCI  24
PEORIA         MOCLDY    28  20  71 CALM      30.35F
$$

NOTE: "FAIR" INDICATES FEW OR NO CLOUDS BELOW 12,000 FEET WITH NO
SIGNIFICANT WEATHER AND/OR OBSTRUCTIONS TO VISIBILITY. WIND
SPEEDS ARE IN MILES-PER-HOUR.




USA.gov is the U.S. government's official web portal to all federal, state and local government web resources and services.